Time,TemperatureF,DewpointF,PressureIn,WindDirection,WindDirectionDegrees,WindSpeedMPH,WindSpeedGustMPH,Humidity,HourlyPrecipIn,Conditions,Clouds,dailyrainin,SoftwareType,DateUTC
2013-07-19 00:05:00,81.4,68.5,29.88,SSE,167,6.0,12.0,65,0.00,,---,0.00,VWS V14.01,2013-07-19 05:05:00,
2013-07-19 00:35:00,81.4,68.5,29.87,South,179,3.0,18.0,65,0.00,,---,0.00,VWS V14.01,2013-07-19 05:35:00,
2013-07-19 01:05:00,81.0,68.1,29.86,SSE,148,3.0,15.0,65,0.00,,---,0.00,VWS V14.01,2013-07-19 06:05:00,
2013-07-19 01:35:00,80.3,67.9,29.86,SSW,199,0.0,18.0,66,0.00,,---,0.00,VWS V14.01,2013-07-19 06:35:00,
2013-07-19 02:05:00,79.8,67.9,29.85,SSW,198,3.0,18.0,67,0.00,,---,0.00,VWS V14.01,2013-07-19 07:05:00,
2013-07-19 02:35:00,79.1,67.6,29.84,WNW,288,3.0,18.0,68,0.00,,---,0.00,VWS V14.01,2013-07-19 07:35:00,
2013-07-19 03:05:00,79.6,67.7,29.83,SSE,156,6.0,18.0,67,0.00,,---,0.00,VWS V14.01,2013-07-19 08:05:00,
2013-07-19 03:35:00,79.6,67.7,29.83,SE,141,0.0,15.0,67,0.00,,---,0.00,VWS V14.01,2013-07-19 08:35:00,
2013-07-19 04:05:00,78.6,67.6,29.82,WSW,242,0.0,12.0,69,0.00,,---,0.00,VWS V14.01,2013-07-19 09:05:00,
2013-07-19 04:35:00,78.1,67.5,29.81,SSE,153,0.0,12.0,70,0.00,,---,0.00,VWS V14.01,2013-07-19 09:35:00,
2013-07-19 05:05:00,78.1,67.5,29.81,North,5,9.0,15.0,70,0.00,,---,0.00,VWS V14.01,2013-07-19 10:05:00,
2013-07-19 05:35:00,78.2,67.2,29.81,SSE,163,9.0,15.0,69,0.00,,---,0.00,VWS V14.01,2013-07-19 10:35:00,
2013-07-19 06:05:00,77.9,66.9,29.82,West,276,0.0,15.0,69,0.00,,---,0.00,VWS V14.01,2013-07-19 11:05:00,
2013-07-19 06:35:00,77.3,67.2,29.83,SSW,203,0.0,9.0,71,0.00,,---,0.00,VWS V14.01,2013-07-19 11:35:00,
2013-07-19 07:05:00,77.5,67.8,29.83,SSW,196,6.0,18.0,72,0.00,,---,0.00,VWS V14.01,2013-07-19 12:05:00,
2013-07-19 07:35:00,78.6,67.6,29.83,NW,319,6.0,21.0,69,0.00,,---,0.00,VWS V14.01,2013-07-19 12:35:00,
2013-07-19 08:05:00,79.5,67.6,29.83,SSW,201,6.0,21.0,67,0.00,,---,0.00,VWS V14.01,2013-07-19 13:05:00,
2013-07-19 08:35:00,80.6,68.2,29.83,South,179,15.0,27.0,66,0.00,,---,0.00,VWS V14.01,2013-07-19 13:35:00,
2013-07-19 09:05:00,81.4,68.5,29.85,WNW,300,6.0,30.0,65,0.00,,---,0.00,VWS V14.01,2013-07-19 14:05:00,
2013-07-19 09:35:00,81.5,69.1,29.85,South,176,6.0,18.0,66,0.00,,---,0.00,VWS V14.01,2013-07-19 14:35:00,
2013-07-19 10:05:00,83.6,70.6,29.84,NW,319,9.0,27.0,65,0.00,,---,0.00,VWS V14.01,2013-07-19 15:05:00,
2013-07-19 10:35:00,83.5,70.5,29.84,WNW,290,0.0,21.0,65,0.00,,---,0.00,VWS V14.01,2013-07-19 15:35:00,
2013-07-19 11:05:00,84.7,72.1,29.83,ESE,118,12.0,15.0,66,0.00,,---,0.00,VWS V14.01,2013-07-19 16:05:00,
2013-07-19 11:35:00,87.6,70.5,29.83,NW,322,6.0,30.0,57,0.00,,---,0.00,VWS V14.01,2013-07-19 16:35:00,
2013-07-19 12:05:00,89.5,71.2,29.82,South,169,12.0,27.0,55,0.00,,---,0.00,VWS V14.01,2013-07-19 17:05:00,
2013-07-19 12:35:00,89.8,70.4,29.81,South,183,12.0,30.0,53,0.00,,---,0.00,VWS V14.01,2013-07-19 17:35:00,
2013-07-19 13:05:00,89.9,72.1,29.81,NW,305,3.0,24.0,56,0.00,,---,0.00,VWS V14.01,2013-07-19 18:05:00,
2013-07-19 13:35:00,90.0,72.2,29.80,SSW,211,6.0,30.0,56,0.00,,---,0.00,VWS V14.01,2013-07-19 18:35:00,
2013-07-19 14:05:00,89.9,71.6,29.80,West,261,18.0,24.0,55,0.00,,---,0.00,VWS V14.01,2013-07-19 19:05:00,
2013-07-19 14:35:00,91.0,71.5,29.80,SW,235,15.0,27.0,53,0.00,,---,0.00,VWS V14.01,2013-07-19 19:35:00,
2013-07-19 15:05:00,92.8,73.2,29.79,SE,125,6.0,33.0,53,0.00,,---,0.00,VWS V14.01,2013-07-19 20:05:00,
2013-07-19 15:35:00,93.3,72.5,29.78,SSW,208,3.0,24.0,51,0.00,,---,0.00,VWS V14.01,2013-07-19 20:35:00,
2013-07-19 16:05:00,93.5,73.8,29.78,WSW,240,9.0,33.0,53,0.00,,---,0.00,VWS V14.01,2013-07-19 21:05:00,
2013-07-19 16:35:00,94.5,67.9,29.77,NW,320,3.0,24.0,42,0.00,,---,0.00,VWS V14.01,2013-07-19 21:35:00,
2013-07-19 17:05:00,94.5,70.5,29.77,NNW,345,3.0,21.0,46,0.00,,---,0.00,VWS V14.01,2013-07-19 22:05:00,
2013-07-19 17:35:00,94.0,65.3,29.77,NW,317,6.0,18.0,39,0.00,,---,0.00,VWS V14.01,2013-07-19 22:35:00,
2013-07-19 18:05:00,94.3,65.6,29.76,North,360,3.0,21.0,39,0.00,,---,0.00,VWS V14.01,2013-07-19 23:05:00,
2013-07-19 18:35:00,94.2,66.9,29.76,West,271,0.0,15.0,41,0.00,,---,0.00,VWS V14.01,2013-07-19 23:35:00,
2013-07-19 19:05:00,93.5,67.0,29.76,SW,217,0.0,18.0,42,0.00,,---,0.00,VWS V14.01,2013-07-20 00:05:00,
2013-07-19 19:35:00,91.3,67.0,29.77,NNE,22,0.0,9.0,45,0.00,,---,0.00,VWS V14.01,2013-07-20 00:35:00,
2013-07-19 20:05:00,86.4,67.8,29.77,NNE,27,3.0,15.0,54,0.00,,---,0.00,VWS V14.01,2013-07-20 01:05:00,
2013-07-19 20:35:00,84.2,67.3,29.78,NNE,28,0.0,9.0,57,0.00,,---,0.00,VWS V14.01,2013-07-20 01:35:00,
2013-07-19 21:05:00,82.3,66.1,29.78,NNE,28,0.0,6.0,58,0.00,,---,0.00,VWS V14.01,2013-07-20 02:05:00,
2013-07-19 21:35:00,80.9,64.8,29.80,NNE,28,0.0,6.0,58,0.00,,---,0.00,VWS V14.01,2013-07-20 02:35:00,
2013-07-19 22:05:00,79.2,64.1,29.82,NNE,28,0.0,6.0,60,0.00,,---,0.00,VWS V14.01,2013-07-20 03:05:00,
2013-07-19 22:35:00,78.2,64.6,29.83,NNE,28,0.0,6.0,63,0.00,,---,0.00,VWS V14.01,2013-07-20 03:35:00,
2013-07-19 23:05:00,76.5,64.7,29.83,NNE,28,0.0,3.0,67,0.00,,---,0.00,VWS V14.01,2013-07-20 04:05:00,
2013-07-19 23:35:00,75.0,64.6,29.84,NNE,28,0.0,3.0,70,0.00,,---,0.00,VWS V14.01,2013-07-20 04:35:00,